QZS-1R (QZSS/PRN 196)

Last updated on Thu Jul 03 2025 00:03:25 GMT+0000 (Coordinated Universal Time)

1 49336U 21096A 25183.62972622 -.00000300 00000+0 00000+0 0 9990 2 49336 36.7337 84.7884 0757638 271.9473 284.4546 1.00249810 13501
UTC large
Height (km)
Speed (km/s)
/
Latitude / Longitude
Inclination (degrees)
Orbital Period (minutes)
Azimuth
Elevation
Range (km)
Doppler Factor

Next 0 passes for location: London (51.5072 / 0.1276)

Sorry there are no passes over London.